Location: Bimont
(50.5425°N, 1.9040°E)
Time: 03:25:49
(UTC+00:00)

Daily predictions for brighter satellites

Satellite Brightness Start Highest point End
(mag) Time Altitude Azimuth Time Altitude Azimuth Time Altitude Azimuth
H-2A R/B 4.0 02:58:47 10° NE 03:02:39 24° E 03:02:39 24° E
NOSS 3-1 (A) 4.1 03:23:44 65° SSE 03:23:44 65° SSE 03:31:10 10° SE
Cosmos 1980 Rocket 3.6 03:23:21 31° SE 03:24:22 33° ESE 03:29:20 10° NE
USA 281 3.9 03:22:12 10° SE 03:28:30 51° NE 03:32:52 20° NNW
ATLAS 3B R/B 3.0 03:27:51 66° NNW 03:28:59 77° NE 03:36:45 10° SE
USA 267 3.6 03:32:01 10° ENE 03:38:17 51° N 03:38:49 50° NNW
Cosmos 1697 Rocket 3.1 03:42:45 58° NE 03:42:45 58° NE 03:47:16 10° NNE
ATLAS CENTAUR R/B 3.7 03:43:56 20° ENE 03:43:56 20° ENE 03:45:18 10° NE
Lacrosse 4 Rocket 3.6 03:49:00 19° SE 03:49:00 19° SE 03:50:16 10° SE
ATLAS 2AS CENTAUR R/B 2.6 03:47:22 75° SSW 03:48:04 87° SE 03:55:07 10° NE
Cosmos 1452 Rocket 4.0 03:52:05 55° NNE 03:52:05 55° NNE 03:56:12 10° NNE
Cosmos 1818 4.5 03:51:22 40° SSE 03:52:30 45° ESE 03:57:42 10° NE
USA 59 Rocket 1.5 03:53:36 30° ENE 03:53:36 30° ENE 03:56:57 10° ESE
CZ-2C R/B 3.5 03:53:56 10° NNE 03:56:42 35° NNE 03:56:42 35° NNE
Cosmos 2263 Rocket 2.1 04:00:00 76° SSE 04:00:00 76° SSE 04:05:10 10° SSE
Cosmos 2082 3.6 04:03:03 68° N 04:03:48 83° ENE 04:09:28 10° SSE
Cosmos 2266 Rocket 4.1 04:04:40 10° S 04:11:05 80° E 04:17:30 10° NNE
BREEZE-M DEB (TANK) 3.3 04:14:05 40° E 04:14:05 40° E 04:17:23 10° E
NOSS 2-1 (E) 4.0 04:20:27 48° NNE 04:20:37 48° NE 04:25:09 10° ESE
SL-16 R/B 4.4 04:19:25 10° SSE 04:23:52 24° ESE 04:28:21 10° NE
USA 229 DEB 3.9 04:21:54 32° NW 04:25:50 90° NE 04:33:56 10° SE
USA 229 3.9 04:22:00 32° NW 04:25:57 89° NE 04:34:02 10° SE
Cosmos 1484 Rocket 3.6 04:24:08 10° NNE 04:27:32 43° E 04:30:40 11° S
Cosmos 304 Rocket 3.8 04:26:56 38° NNW 04:28:44 76° ENE 04:33:29 10° SSE
Cosmos 1655 Rocket 4.2 04:24:15 10° S 04:30:36 74° E 04:36:57 10° NNE
Cosmos 1110 Rocket 4.4 04:32:05 46° NW 04:32:05 46° NW 04:36:41 10° NNE
IRAS Rocket 4.1 04:27:57 10° NNE 04:33:29 86° WNW 04:39:02 10° SSW
S3M 3.9 04:28:49 10° NNW 04:34:59 60° W 04:41:02 10° S
Cosmos 2219 3.5 04:35:43 44° SW 04:35:43 44° SW 04:40:33 10° S
SKYMED 2 4.2 04:32:21 10° SSE 04:36:36 55° ENE 04:40:52 10° N
BREEZE-M DEB (TANK) 4.2 04:39:15 12° SSE 04:39:44 13° SSE 04:41:04 10° ESE
H-2A R/B 2.0 04:37:36 10° N 04:42:30 54° WNW 04:43:10 50° W
BREEZE-M DEB (TANK) 3.7 04:45:30 30° S 04:45:30 30° S 04:50:25 10° ESE
PAYLOAD A 4.4 04:42:12 10° N 04:47:19 43° WNW 04:47:56 42° W
Meteor 1-24 Rocket 3.5 04:46:54 10° SSW 04:52:20 65° WNW 04:57:40 10° N
ARIANE 5 R/B 4.4 04:48:33 10° NNE 04:53:04 32° E 04:57:35 10° SSE
ARGOS 3.1 04:48:10 10° NNE 04:53:39 89° ESE 04:59:05 10° SSW
Thor Agena Rocket 3.4 04:50:01 10° NNE 04:55:15 75° WNW 05:00:23 10° SSW
Meteor 2-20 Rocket 4.3 04:53:09 10° NNW 04:59:00 62° W 05:04:40 10° S
Cosmos 1844 Rocket 3.1 04:53:39 10° NNW 04:59:12 64° ENE 05:04:47 10° SE
NOSS 2-1 (C) 3.3 04:58:21 44° NW 04:59:32 84° SW 05:04:24 10° SE
Cosmos 2322 Rocket 4.2 04:58:32 10° SSE 05:03:23 30° ESE 05:08:13 10° NE
Sich 1 Rocket 3.6 05:00:17 10° N 05:04:46 82° E 05:09:16 10° SSE
H-2A R/B 4.3 05:04:16 10° NE 05:06:20 23° E 05:08:24 10° SSE
IRS-1D 3.9 05:03:29 10° N 05:08:04 37° WNW 05:09:55 27° WSW
Cosmos 1980 Rocket 2.3 05:05:09 25° WSW 05:08:11 50° NW 05:13:38 10° NNE
YAOGAN 11 4.1 05:06:27 10° SSE 05:10:48 81° ENE 05:15:14 10° NNW
Cosmos 2369 3.7 05:07:06 12° SW 05:12:15 63° WNW 05:17:54 10° NNE
USA 281 3.5 05:06:57 10° S 05:13:06 42° WSW 05:19:20 10° NW
Cosmos 1378 Rocket 3.4 05:11:33 10° SSW 05:15:58 78° WNW 05:20:23 10° N
FengYun 1-2 T 4.2 05:10:59 10° NNE 05:16:40 86° WNW 05:22:19 10° SSW
Cosmos 1674 Rocket 3.5 05:13:39 10° S 05:17:57 90° ESE 05:22:19 10° N
Cosmos 1025 Rocket 4.1 05:14:30 10° SSE 05:18:33 45° E 05:22:38 10° NNE
Cosmos 371 Rocket 3.8 05:16:34 24° NW 05:18:43 37° WSW 05:23:08 10° S
ATLAS CENTAUR R/B 2.0 05:18:24 29° NW 05:18:55 31° NW 05:22:25 10° NNE
ATLAS 3B R/B 3.6 05:15:08 21° WNW 05:19:15 34° WSW 05:25:58 10° S
Okean 2 Rocket 3.0 05:15:56 10° NNW 05:20:25 68° W 05:24:50 10° S
Meteor 2-5 Rocket 4.1 05:15:28 10° SW 05:20:54 42° WNW 05:26:16 10° N
USA 267 3.4 05:14:25 10° ESE 05:20:55 74° NNE 05:26:09 17° WNW
ARIANE 6 FM1 Upper Stage 3.6 05:18:09 10° SSW 05:22:14 51° SE 05:26:24 10° NE
Cosmos 482 Debris 4.2 05:20:32 26° W 05:22:58 82° NNW 05:26:37 10° ENE
Cosmos 1939 Rocket 3.3 05:19:41 10° N 05:23:03 33° WNW 05:24:26 25° WSW
Cosmos 1503 Rocket 4.2 05:17:43 10° NNW 05:23:04 73° ENE 05:28:19 10° SSE
Lacrosse 4 Rocket 3.1 05:24:51 16° SW 05:24:51 16° SW 05:26:34 10° SSW
Cosmos 1486 Rocket 3.9 05:18:37 10° NNW 05:23:50 77° WSW 05:29:02 10° SSE
Cosmos 332 Rocket 3.7 05:19:33 10° NNW 05:24:28 87° WSW 05:29:20 10° SSE
COSMO-SKYMED 1 2.7 05:20:26 10° S 05:24:40 52° W 05:28:56 10° NNW
Cosmos 1992 Rocket 3.9 05:19:38 10° SSW 05:24:50 69° WNW 05:30:05 10° NNE
NOAA 12 4.1 05:20:09 10° NNE 05:25:31 87° ESE 05:30:51 10° SSW
Cosmos 1697 Rocket 3.8 05:24:29 21° WNW 05:26:14 25° NW 05:30:51 10° NNE
Cosmos 1844 3.7 05:22:14 10° NNW 05:27:56 88° ENE 05:33:41 10° SSE
SL-08 R/B 4.3 05:23:26 10° SE 05:27:59 47° ENE 05:32:29 10° N
NOSS 2-1 (D) 3.8 05:29:47 24° WNW 05:31:51 46° SW 05:36:41 10° SSE
Cosmos 2098 Rocket 2.4 05:28:02 10° NNW 05:31:59 77° W 05:35:15 10° S
Cosmos 2227 4.3 05:28:40 10° NW 05:34:08 53° WSW 05:39:39 10° S
SJ-11-01 4.2 05:31:09 10° NNE 05:35:50 80° WNW 05:40:29 10° SSW
Cosmos 1818 4.0 05:32:02 16° WSW 05:36:07 45° NW 05:41:23 10° NE
CZ-2C R/B 4.0 05:33:26 10° NNW 05:35:57 15° NW 05:35:57 15° NW
ATLAS 2AS CENTAUR R/B 3.4 05:34:49 17° W 05:39:44 38° NNW 05:46:08 10° NE
CRYOSAT 2 4.3 05:34:57 10° S 05:39:49 77° W 05:44:44 10° N
USA 59 Rocket 0.6 05:39:52 19° WNW 05:42:18 40° SW 05:47:09 10° SSE
Cosmos 2263 Rocket 3.6 05:41:46 16° W 05:42:37 17° W 05:46:02 10° SW
Cosmos 1455 Rocket 3.4 05:38:51 10° N 05:43:13 67° ENE 05:47:31 10° SSE
NOSS 3 (A) 3.6 05:42:42 22° SSW 05:43:30 51° SE 05:45:01 10° NE
Nadezhda 1 Rocket 4.0 05:37:47 10° N 05:44:00 87° E 05:50:05 10° S
CBERS-1 4.3 05:41:02 10° N 05:45:56 46° WNW 05:50:48 10° SW
Cosmos 2237 4.2 05:42:09 10° SW 05:47:49 75° WNW 05:53:33 10° NNE
Cosmos 1869 3.5 05:47:31 10° N 05:51:21 69° E 05:55:08 10° SSE
SL-08 R/B 4.4 05:45:45 10° SSW 05:51:51 72° WNW 05:58:02 10° N
Cosmos 2151 Rocket 4.4 05:49:35 10° NNW 05:53:25 29° W 05:57:15 10° SSW
Cosmos 1437 Rocket 3.3 05:51:55 10° SW 05:55:09 31° WNW 05:58:27 10° N
Cosmos 2360 Rocket 2.9 05:49:43 10° S 05:55:12 58° ESE 06:00:43 10° NE
Meteor 2-1 Rocket 4.5 05:49:33 10° N 05:55:22 77° ENE 06:01:00 10° SSE
SL-08 RB Rocket 4.5 05:56:21 10° N 06:00:22 30° WNW 06:04:23 10° SW
Cosmos 1484 Rocket 4.0 05:58:23 10° NNW 06:00:45 17° WNW 06:03:05 10° WSW
Okean 1 Rocket 3.6 05:57:44 10° NNW 06:01:53 38° W 06:06:00 10° SSW
Cosmos 1606 2.4 05:58:32 10° NNW 06:01:54 58° W 06:05:11 10° S
Cosmos 1354 Rocket 4.0 05:57:46 10° NNW 06:03:05 75° WSW 06:08:20 10° SSE
BREEZE-M DEB (TANK) 2.6 05:59:20 11° W 06:04:36 67° SSW 06:06:47 10° ESE
Cosmos 2084 Rocket 3.4 06:01:17 10° SW 06:05:34 74° NW 06:09:46 10° NE
SL-16 R/B 2.2 06:01:51 10° SW 06:07:29 67° WNW 06:13:10 10° NNE
Cosmos 292 Rocket 3.8 06:03:50 10° NNW 06:08:40 89° WSW 06:13:29 10° SSE
Gbstr 26 Del rocket 3.6 06:05:47 10° WSW 06:10:34 81° SSE 06:16:34 10° ENE
CZ-2D R/B 3.0 06:07:25 10° N 06:10:55 63° WNW 06:14:24 10° SSW
EXPRESS MD2 3.7 06:11:16 10° SW 06:14:06 35° SSE 06:16:13 10° E
ADEOS Rocket 3.5 06:07:17 10° NNE 06:14:41 85° ESE 06:21:18 10° SSW
Cosmos 2228 4.0 06:12:26 10° N 06:16:29 47° ENE 06:20:30 10° SSE
CZ-2D R/B 3.3 06:12:34 10° NNE 06:16:31 82° WNW 06:20:30 10° SSW
SJ-12 4.0 06:15:14 10° N 06:19:05 50° WNW 06:22:53 10° SW
H-2A R/B 3.8 06:19:48 10° NW 06:20:45 10° NW 06:21:42 10° WNW
USA 290 3.5 06:19:14 10° NNW 06:22:13 39° ENE 06:25:10 10° SE
Cosmos 990 Rocket 4.0 06:19:23 10° NNW 06:24:32 89° WSW 06:29:40 10° SSE
USA 215 3.5 06:21:31 10° ENE 06:28:05 79° SE 06:34:38 10° SW
